| time (UTC) | temp F | wind direction | speed MPH | gust MPH | rain 1hr in | rain 24hr in | rain mn in | humidity % | barometer mb |
| 20260903062520 | 62 | 141 | 5.0 | 8.0 | 0.00 | 0.00 | 0.00 | 44 | 1025.6 |
| 20260903061517 | 65 | 268 | 10.0 | 18.0 | 0.00 | 0.00 | 0.00 | 36 | 1025.3 |
| 20260903060520 | 60 | 184 | 3.0 | 5.0 | 0.00 | 0.00 | 0.00 | 43 | 1025.6 |
| 20260903055520 | 59 | 168 | 5.0 | 8.0 | 0.00 | 0.00 | 0.00 | 47 | 1025.6 |
| 20260903054520 | 59 | 160 | 5.0 | 6.0 | 0.00 | 0.00 | 0.00 | 45 | 1025.7 |
| 20260903053521 | 59 | 168 | 5.0 | 7.0 | 0.00 | 0.00 | 0.00 | 44 | 1025.8 |
| 20260903052521 | 59 | 163 | 4.0 | 6.0 | 0.00 | 0.00 | 0.00 | 45 | 1025.8 |
| 20260903051521 | 60 | 142 | 4.0 | 8.0 | 0.00 | 0.00 | 0.00 | 42 | 1026.0 |
| 20260903050521 | 61 | 171 | 6.0 | 10.0 | 0.00 | 0.00 | 0.00 | 40 | 1026.0 |
| 20260903045601 | 61 | 145 | 2.0 | 4.0 | 0.00 | 0.00 | 0.00 | 39 | 1026.1 |
| 20260903044521 | 60 | 155 | 6.0 | 8.0 | 0.00 | 0.00 | 0.00 | 40 | 1026.1 |
| 20260903043522 | 60 | 189 | 3.0 | 6.0 | 0.00 | 0.00 | 0.00 | 41 | 1026.1 |
| 20260903042522 | 62 | 183 | 4.0 | 6.0 | 0.00 | 0.00 | 0.00 | 36 | 1026.1 |
| 20260903041522 | 62 | 141 | 2.0 | 4.0 | 0.00 | 0.00 | 0.00 | 36 | 1026.2 |
| 20260903040522 | 63 | 148 | 5.0 | 9.0 | 0.00 | 0.00 | 0.00 | 36 | 1026.1 |
| 20260903035516 | 63 | 98 | 3.0 | 5.0 | 0.00 | 0.00 | 0.00 | 33 | 1026.1 |
| 20260903034516 | 62 | 44 | 4.0 | 7.0 | 0.00 | 0.00 | 0.00 | 35 | 1026.1 |
| 20260903033517 | 64 | 229 | 4.0 | 7.0 | 0.00 | 0.00 | 0.00 | 32 | 1026.0 |
| 20260903032523 | 65 | 227 | 5.0 | 8.0 | 0.00 | 0.00 | 0.00 | 31 | 1025.8 |
| 20260903031517 | 65 | 245 | 6.0 | 9.0 | 0.00 | 0.00 | 0.00 | 31 | 1025.7 |
| 20260903030517 | 65 | 238 | 5.0 | 8.0 | 0.00 | 0.00 | 0.00 | 31 | 1025.6 |
| 20260903025517 | 66 | 252 | 6.0 | 10.0 | 0.00 | 0.00 | 0.00 | 30 | 1025.5 |
| 20260903024517 | 66 | 254 | 6.0 | 10.0 | 0.00 | 0.00 | 0.00 | 29 | 1025.4 |
| 20260903023558 | 67 | 258 | 7.0 | 10.0 | 0.00 | 0.00 | 0.00 | 29 | 1025.3 |
| 20260903022538 | 67 | 254 | 7.0 | 9.0 | 0.00 | 0.00 | 0.00 | 29 | 1025.3 |
| 20260903021518 | 69 | 259 | 8.0 | 13.0 | 0.00 | 0.00 | 0.00 | 27 | 1025.2 |
| 20260903020539 | 69 | 274 | 9.0 | 14.0 | 0.00 | 0.00 | 0.00 | 26 | 1025.1 |
| 20260903015538 | 69 | 282 | 9.0 | 15.0 | 0.00 | 0.00 | 0.00 | 26 | 1025.0 |
| 20260903014519 | 68 | 266 | 7.0 | 10.0 | 0.00 | 0.00 | 0.00 | 26 | 1024.9 |
| 20260903013519 | 69 | 264 | 7.0 | 10.0 | 0.00 | 0.00 | 0.00 | 25 | 1024.8 |
| 20260903012516 | 70 | 251 | 9.0 | 11.0 | 0.00 | 0.00 | 0.00 | 22 | 1024.8 |
| 20260903011519 | 71 | 245 | 8.0 | 13.0 | 0.00 | 0.00 | 0.00 | 22 | 1024.6 |
| 20260903010517 | 73 | 234 | 6.0 | 13.0 | 0.00 | 0.00 | 0.00 | 22 | 1024.7 |
| 20260903005537 | 74 | 233 | 9.0 | 13.0 | 0.00 | 0.00 | 0.00 | 20 | 1024.6 |
| 20260903004517 | 75 | 243 | 7.0 | 12.0 | 0.00 | 0.00 | 0.00 | 20 | 1024.7 |
| 20260903003537 | 75 | 246 | 10.0 | 18.0 | 0.00 | 0.00 | 0.00 | 20 | 1024.6 |
| 20260903002520 | 76 | 236 | 7.0 | 10.0 | 0.00 | 0.00 | 0.00 | 21 | 1024.6 |
| 20260903001517 | 76 | 241 | 7.0 | 11.0 | 0.00 | 0.00 | 0.00 | 21 | 1024.6 |
| 20260903000538 | 77 | 263 | 11.0 | 15.0 | 0.00 | 0.00 | 0.00 | 20 | 1024.6 |
| 20260902235518 | 77 | 246 | 8.0 | 13.0 | 0.00 | 0.00 | 0.00 | 20 | 1024.5 |
| 20260902234518 | 76 | 256 | 8.0 | 12.0 | 0.00 | 0.00 | 0.00 | 21 | 1024.6 |
| 20260902233521 | 76 | 251 | 6.0 | 9.0 | 0.00 | 0.00 | 0.00 | 21 | 1024.6 |
| 20260902232518 | 76 | 278 | 9.0 | 17.0 | 0.00 | 0.00 | 0.00 | 21 | 1024.7 |
| 20260902231518 | 76 | 294 | 7.0 | 11.0 | 0.00 | 0.00 | 0.00 | 21 | 1024.8 |
| 20260902230519 | 77 | 251 | 7.0 | 12.0 | 0.00 | 0.00 | 0.00 | 21 | 1024.8 |
| 20260902225516 | 77 | 224 | 8.0 | 13.0 | 0.00 | 0.00 | 0.00 | 21 | 1024.9 |
| 20260902224519 | 77 | 270 | 9.0 | 15.0 | 0.00 | 0.00 | 0.00 | 22 | 1024.9 |
| 20260902223539 | 78 | 262 | 11.0 | 17.0 | 0.00 | 0.00 | 0.00 | 21 | 1024.9 |
| 20260902222536 | 78 | 275 | 8.0 | 15.0 | 0.00 | 0.00 | 0.00 | 22 | 1025.0 |
| 20260902221517 | 77 | 283 | 9.0 | 15.0 | 0.00 | 0.00 | 0.00 | 22 | 1025.1 |
| 20260902220528 | 77 | 306 | 6.0 | 12.0 | 0.00 | 0.00 | 0.00 | 23 | 1025.2 |
| 20260902215518 | 77 | 296 | 8.0 | 13.0 | 0.00 | 0.00 | 0.00 | 23 | 1025.3 |
| 20260902214517 | 76 | 304 | 5.0 | 9.0 | 0.00 | 0.00 | 0.00 | 24 | 1025.4 |
| 20260902213517 | 77 | 298 | 5.0 | 9.0 | 0.00 | 0.00 | 0.00 | 24 | 1025.5 |
| 20260902212517 | 76 | 268 | 7.0 | 16.0 | 0.00 | 0.00 | 0.00 | 24 | 1025.6 |
| 20260902211523 | 76 | 216 | 6.0 | 12.0 | 0.00 | 0.00 | 0.00 | 24 | 1025.7 |
| 20260902210518 | 76 | 249 | 6.0 | 12.0 | 0.00 | 0.00 | 0.00 | 24 | 1025.9 |
| 20260902205518 | 76 | 283 | 4.0 | 13.0 | 0.00 | 0.00 | 0.00 | 24 | 1026.0 |
| 20260902204539 | 76 | 245 | 5.0 | 11.0 | 0.00 | 0.00 | 0.00 | 24 | 1026.1 |
| 20260902203538 | 76 | 244 | 5.0 | 9.0 | 0.00 | 0.00 | 0.00 | 24 | 1026.2 |
| 20260902202519 | 75 | 177 | 5.0 | 10.0 | 0.00 | 0.00 | 0.00 | 24 | 1026.3 |
| 20260902201519 | 75 | 250 | 6.0 | 11.0 | 0.00 | 0.00 | 0.00 | 25 | 1026.4 |
| 20260902200519 | 75 | 198 | 6.0 | 9.0 | 0.00 | 0.00 | 0.00 | 25 | 1026.5 |
| 20260902195519 | 76 | 135 | 4.0 | 9.0 | 0.00 | 0.00 | 0.00 | 25 | 1026.7 |
| 20260902194519 | 74 | 173 | 3.0 | 8.0 | 0.00 | 0.00 | 0.00 | 26 | 1026.8 |
| 20260902193516 | 74 | 195 | 7.0 | 17.0 | 0.00 | 0.00 | 0.00 | 25 | 1026.9 |
| 20260902192516 | 74 | 178 | 5.0 | 12.0 | 0.00 | 0.00 | 0.00 | 26 | 1027.0 |
| 20260902191520 | 73 | 194 | 7.0 | 12.0 | 0.00 | 0.00 | 0.00 | 26 | 1027.0 |
| 20260902190520 | 73 | 221 | 5.0 | 8.0 | 0.00 | 0.00 | 0.00 | 26 | 1027.1 |
| 20260902185520 | 73 | 14 | 6.0 | 11.0 | 0.00 | 0.00 | 0.00 | 26 | 1027.4 |
| 20260902184520 | 73 | 19 | 4.0 | 10.0 | 0.00 | 0.00 | 0.00 | 27 | 1027.5 |
| 20260902183521 | 73 | 293 | 5.0 | 10.0 | 0.00 | 0.00 | 0.00 | 27 | 1027.7 |
| 20260902182518 | 73 | 334 | 7.0 | 12.0 | 0.00 | 0.00 | 0.00 | 26 | 1027.8 |
| 20260902181518 | 73 | 316 | 7.0 | 12.0 | 0.00 | 0.00 | 0.00 | 26 | 1027.9 |
| 20260902180518 | 72 | 308 | 6.0 | 14.0 | 0.00 | 0.00 | 0.00 | 25 | 1028.0 |
| 20260902175519 | 72 | 290 | 5.0 | 10.0 | 0.00 | 0.00 | 0.00 | 27 | 1028.0 |
| 20260902174519 | 72 | 306 | 7.0 | 11.0 | 0.00 | 0.00 | 0.00 | 26 | 1028.1 |
| 20260902173519 | 72 | 289 | 9.0 | 19.0 | 0.00 | 0.00 | 0.00 | 27 | 1028.1 |
| 20260902172519 | 71 | 302 | 4.0 | 12.0 | 0.00 | 0.00 | 0.00 | 27 | 1028.3 |
| 20260902171539 | 71 | 290 | 7.0 | 12.0 | 0.00 | 0.00 | 0.00 | 28 | 1028.3 |
| 20260902170519 | 71 | 288 | 8.0 | 14.0 | 0.00 | 0.00 | 0.00 | 28 | 1028.3 |
| 20260902165539 | 71 | 252 | 8.0 | 14.0 | 0.00 | 0.00 | 0.00 | 29 | 1028.4 |
| 20260902164517 | 70 | 291 | 8.0 | 13.0 | 0.00 | 0.00 | 0.00 | 30 | 1028.4 |
| 20260902163540 | 69 | 348 | 2.0 | 4.0 | 0.00 | 0.00 | 0.00 | 33 | 1028.4 |
| 20260902162523 | 69 | 16 | 4.0 | 8.0 | 0.00 | 0.00 | 0.00 | 33 | 1028.3 |
| 20260902161523 | 69 | 316 | 6.0 | 9.0 | 0.00 | 0.00 | 0.00 | 34 | 1028.3 |
| 20260902160517 | 68 | 279 | 6.0 | 10.0 | 0.00 | 0.00 | 0.00 | 34 | 1028.4 |
| 20260902155538 | 68 | 300 | 4.0 | 8.0 | 0.00 | 0.00 | 0.00 | 35 | 1028.4 |
| 20260902154537 | 68 | 259 | 8.0 | 12.0 | 0.00 | 0.00 | 0.00 | 35 | 1028.5 |
| 20260902153518 | 68 | 270 | 4.0 | 13.0 | 0.00 | 0.00 | 0.00 | 36 | 1028.6 |
| 20260902152521 | 68 | 263 | 2.0 | 3.0 | 0.00 | 0.00 | 0.00 | 36 | 1028.5 |
| 20260902151601 | 68 | 194 | 1.0 | 2.0 | 0.00 | 0.00 | 0.00 | 36 | 1028.6 |
| 20260902150521 | 67 | 190 | 2.0 | 3.0 | 0.00 | 0.00 | 0.00 | 37 | 1028.6 |
| 20260902145521 | 66 | 208 | 2.0 | 3.0 | 0.00 | 0.00 | 0.00 | 38 | 1028.7 |
| 20260902144522 | 65 | 175 | 3.0 | 4.0 | 0.00 | 0.00 | 0.00 | 40 | 1028.7 |
| 20260902143522 | 64 | 151 | 3.0 | 5.0 | 0.00 | 0.00 | 0.00 | 42 | 1028.8 |
| 20260902142519 | 63 | 142 | 4.0 | 6.0 | 0.00 | 0.00 | 0.00 | 44 | 1028.7 |
| 20260902141519 | 61 | 164 | 5.0 | 7.0 | 0.00 | 0.00 | 0.00 | 48 | 1028.7 |
| 20260902140520 | 60 | 145 | 6.0 | 8.0 | 0.00 | 0.00 | 0.00 | 51 | 1028.7 |
| 20260902135519 | 58 | 155 | 5.0 | 7.0 | 0.00 | 0.00 | 0.00 | 54 | 1028.7 |
| 20260902134540 | 57 | 147 | 5.0 | 7.0 | 0.00 | 0.00 | 0.00 | 56 | 1028.7 |
| 20260902133540 | 55 | 131 | 5.0 | 6.0 | 0.00 | 0.00 | 0.00 | 60 | 1028.7 |
| 20260902132520 | 53 | 155 | 7.0 | 9.0 | 0.00 | 0.00 | 0.00 | 63 | 1028.5 |
| 20260902131521 | 51 | 169 | 7.0 | 9.0 | 0.00 | 0.00 | 0.00 | 66 | 1028.5 |
| 20260902130521 | 51 | 155 | 5.0 | 9.0 | 0.00 | 0.00 | 0.00 | 66 | 1028.4 |
| 20260902125521 | 50 | 164 | 8.0 | 10.0 | 0.00 | 0.00 | 0.00 | 66 | 1028.2 |
| 20260902124521 | 48 | 150 | 7.0 | 9.0 | 0.00 | 0.00 | 0.00 | 69 | 1028.2 |
| 20260902123521 | 47 | 149 | 6.0 | 8.0 | 0.00 | 0.00 | 0.00 | 75 | 1028.3 |
| 20260902122542 | 47 | 159 | 4.0 | 6.0 | 0.00 | 0.00 | 0.00 | 75 | 1028.2 |
| 20260902121522 | 47 | 175 | 4.0 | 5.0 | 0.00 | 0.00 | 0.00 | 75 | 1028.2 |
| 20260902120521 | 47 | 149 | 5.0 | 6.0 | 0.00 | 0.00 | 0.00 | 73 | 1028.1 |
| 20260902115525 | 48 | 241 | 1.0 | 5.0 | 0.00 | 0.00 | 0.00 | 74 | 1028.0 |
| 20260902114605 | 48 | 30 | 1.0 | 4.0 | 0.00 | 0.00 | 0.00 | 74 | 1028.1 |
| 20260902113522 | 48 | 184 | 4.0 | 8.0 | 0.00 | 0.00 | 0.00 | 74 | 1027.9 |
| 20260902112516 | 48 | 175 | 4.0 | 6.0 | 0.00 | 0.00 | 0.00 | 74 | 1027.9 |
| 20260902111516 | 48 | 87 | 3.0 | 6.0 | 0.00 | 0.00 | 0.00 | 74 | 1027.8 |
| 20260902110525 | 50 | 60 | 4.0 | 5.0 | 0.00 | 0.00 | 0.00 | 73 | 1027.8 |
| 20260902105523 | 51 | 171 | 6.0 | 8.0 | 0.00 | 0.00 | 0.00 | 69 | 1027.7 |
| 20260902104517 | 51 | 144 | 5.0 | 6.0 | 0.00 | 0.00 | 0.00 | 69 | 1027.8 |
| 20260902103517 | 51 | 138 | 5.0 | 6.0 | 0.00 | 0.00 | 0.00 | 67 | 1027.7 |
| 20260902102518 | 51 | 141 | 6.0 | 7.0 | 0.00 | 0.00 | 0.00 | 70 | 1027.8 |
| 20260902101518 | 50 | 141 | 6.0 | 8.0 | 0.00 | 0.00 | 0.00 | 69 | 1027.8 |
| 20260902100547 | 51 | 139 | 4.0 | 5.0 | 0.00 | 0.00 | 0.00 | 72 | 1027.9 |
| 20260902095538 | 51 | 140 | 6.0 | 8.0 | 0.00 | 0.00 | 0.00 | 74 | 1027.9 |
| 20260902094538 | 52 | 135 | 5.0 | 6.0 | 0.00 | 0.00 | 0.00 | 73 | 1027.9 |
| 20260902093548 | 52 | 120 | 3.0 | 5.0 | 0.00 | 0.00 | 0.00 | 71 | 1027.9 |
| 20260902092527 | 53 | 91 | 3.0 | 4.0 | 0.00 | 0.00 | 0.00 | 72 | 1027.9 |
| 20260902091519 | 53 | 107 | 3.0 | 6.0 | 0.00 | 0.00 | 0.00 | 72 | 1027.9 |
| 20260902090519 | 54 | 71 | 4.0 | 6.0 | 0.00 | 0.00 | 0.00 | 71 | 1027.9 |
| 20260902085519 | 54 | 257 | 3.0 | 5.0 | 0.00 | 0.00 | 0.00 | 72 | 1027.8 |
| 20260902084519 | 54 | 209 | 6.0 | 9.0 | 0.00 | 0.00 | 0.00 | 72 | 1027.8 |
| 20260902083519 | 54 | 186 | 8.0 | 10.0 | 0.00 | 0.00 | 0.00 | 71 | 1027.8 |
| 20260902082519 | 55 | 156 | 6.0 | 9.0 | 0.00 | 0.00 | 0.00 | 71 | 1027.8 |
| 20260902081519 | 54 | 158 | 7.0 | 10.0 | 0.00 | 0.00 | 0.00 | 71 | 1028.0 |
| 20260902080529 | 53 | 174 | 2.0 | 4.0 | 0.00 | 0.00 | 0.00 | 74 | 1028.1 |
| 20260902075520 | 53 | 162 | 6.0 | 8.0 | 0.00 | 0.00 | 0.00 | 73 | 1027.9 |
| 20260902074520 | 54 | 158 | 4.0 | 5.0 | 0.00 | 0.00 | 0.00 | 72 | 1028.0 |
| 20260902073600 | 55 | 153 | 6.0 | 7.0 | 0.00 | 0.00 | 0.00 | 70 | 1028.0 |
| 20260902072540 | 55 | 165 | 6.0 | 8.0 | 0.00 | 0.00 | 0.00 | 69 | 1027.9 |
| 20260902071521 | 56 | 162 | 5.0 | 8.0 | 0.00 | 0.00 | 0.00 | 67 | 1028.0 |
| 20260902070541 | 56 | 178 | 7.0 | 10.0 | 0.00 | 0.00 | 0.00 | 65 | 1027.9 |
| 20260902065538 | 56 | 175 | 7.0 | 10.0 | 0.00 | 0.00 | 0.00 | 65 | 1028.0 |
| 20260902064521 | 56 | 167 | 7.0 | 10.0 | 0.00 | 0.00 | 0.00 | 67 | 1027.9 |
| 20260902063521 | 58 | 183 | 5.0 | 8.0 | 0.00 | 0.00 | 0.00 | 63 | 1027.9 |